AFL007 ULLI-UUEE

Flight info

Callsign AFL007
Flight time N/A
Altitude 31000
Route N0460F310 SUGIN T873 NIRGI T73 NAMIN
Aircraft B738/M-VGDW/C

Departure

Time N/A
Airport Pulkovo Airport (ULLI)

Arrival

Time 2026-05-01 07:33
Airport Sheremetyevo International Airport (UUEE)
Time Latitude Longitude Altitude Speed Heading
2026-05-01 07:23 56.16935 37.41033 7516 ft 239 kts 73°
2026-05-01 07:23 56.17927 37.46716 6953 ft 234 kts 72°
2026-05-01 07:24 56.18368 37.49523 6440 ft 234 kts 72°
2026-05-01 07:24 56.18794 37.52354 5921 ft 234 kts 73°
2026-05-01 07:24 56.19210 37.55138 5433 ft 233 kts 73°
2026-05-01 07:24 56.19316 37.58035 5044 ft 238 kts 101°
2026-05-01 07:25 56.18646 37.60736 4911 ft 238 kts 122°
2026-05-01 07:25 56.17603 37.63027 4796 ft 237 kts 132°
2026-05-01 07:25 56.16429 37.65100 4681 ft 237 kts 136°
2026-05-01 07:25 56.15233 37.67139 4565 ft 237 kts 135°
2026-05-01 07:26 56.14061 37.69215 4454 ft 235 kts 135°
2026-05-01 07:26 56.12934 37.71253 4364 ft 225 kts 134°
2026-05-01 07:26 56.11866 37.73198 4258 ft 213 kts 134°
2026-05-01 07:26 56.10851 37.75047 4144 ft 204 kts 134°
2026-05-01 07:27 56.09864 37.76783 4047 ft 193 kts 141°
2026-05-01 07:27 56.08679 37.77599 3890 ft 185 kts 181°
2026-05-01 07:27 56.07449 37.77097 3790 ft 180 kts 199°
2026-05-01 07:27 56.06288 37.76301 3652 ft 178 kts 202°
2026-05-01 07:28 56.05123 37.75558 3510 ft 177 kts 200°
2026-05-01 07:28 56.03957 37.74848 3371 ft 177 kts 200°
2026-05-01 07:28 56.03187 37.74379 3280 ft 176 kts 201°
2026-05-01 07:28 56.02158 37.73260 3120 ft 173 kts 229°
2026-05-01 07:29 56.01571 37.71412 2997 ft 171 kts 251°
2026-05-01 07:29 56.01175 37.68695 2820 ft 170 kts 257°
2026-05-01 07:29 56.00991 37.67324 2788 ft 166 kts 257°
2026-05-01 07:29 56.00712 37.65346 2686 ft 162 kts 256°
2026-05-01 07:30 56.00433 37.63440 2488 ft 154 kts 256°
2026-05-01 07:30 56.00169 37.61658 2320 ft 142 kts 256°
2026-05-01 07:30 55.99921 37.59992 2153 ft 136 kts 256°
2026-05-01 07:30 55.99681 37.58388 1997 ft 135 kts 256°
2026-05-01 07:31 55.99440 37.56778 1847 ft 134 kts 256°
2026-05-01 07:31 55.98721 37.51987 1390 ft 133 kts 255°
2026-05-01 07:32 55.98244 37.48810 1087 ft 132 kts 255°
2026-05-01 07:32 55.98005 37.47218 936 ft 132 kts 255°
2026-05-01 07:33 55.97530 37.44046 653 ft 129 kts 255°
2026-05-01 07:33 55.97308 37.42596 639 ft 107 kts 257°
2026-05-01 07:33 55.97146 37.41375 638 ft 13 kts 310°
2026-05-01 07:34 55.97226 37.41317 638 ft 13 kts 345°
2026-05-01 07:34 55.97433 37.41218 638 ft 19 kts 345°
2026-05-01 07:34 55.97538 37.41237 638 ft 16 kts 64°
2026-05-01 07:35 55.97576 37.41458 638 ft 21 kts 75°
2026-05-01 07:35 55.97629 37.41602 638 ft 13 kts 352°
2026-05-01 07:35 55.97725 37.41557 638 ft 16 kts 345°
2026-05-01 07:35 55.97838 37.41504 638 ft 18 kts 345°
2026-05-01 07:36 55.97910 37.41538 638 ft 11 kts 72°
2026-05-01 07:36 55.97920 37.41613 638 ft 0 kts 74°